SIA327 EDDM-WSSS

Flight info

Callsign SIA327
Flight time N/A
Altitude 23000
Route KIRDI3W KIRDI DCT BUWOQ DCT OBFEZ/N0489F370 DCT STEIN DCT SIRDU DCT GITAS DCT BOKSI DCT TEGRI DCT UDROS DCT BAMUP DCT ROLIN N644 LAGAS M747 SUBUT T923 EDELU/N0491F390 T923 ERLEV M11 RODAR A909 TUNEK B143 KRS A240 INRAK B449 RANAH L750 ZB G202 RK P628 IBANI L510 TEGIG/N0487F410 L510 GIVAL P628 VPL Y503 RINBA Y507 MAKNA Y511 TOPOR A464 ARAMA LELIB3B
Aircraft A359/H-SDE2E3FGHIJ1J2J4J5M1RWXY/LB1D1

Departure

Time 2026-05-07 14:50
Airport Munich Airport (EDDM)

Arrival

Time N/A
Airport Singapore Changi Airport (WSSS)
Time Latitude Longitude Altitude Speed Heading
2026-05-07 14:07 48.35305 11.79327 1492 ft 0 kts 263°
2026-05-07 14:38 48.35307 11.79354 1476 ft 4 kts 263°
2026-05-07 14:38 48.35310 11.79394 1476 ft 4 kts 263°
2026-05-07 14:38 48.35313 11.79427 1476 ft 4 kts 257°
2026-05-07 14:39 48.35323 11.79461 1476 ft 4 kts 218°
2026-05-07 14:39 48.35346 11.79473 1476 ft 3 kts 174°
2026-05-07 14:39 48.35371 11.79469 1476 ft 4 kts 173°
2026-05-07 14:39 48.35380 11.79467 1484 ft 5 kts 173°
2026-05-07 14:44 48.35355 11.79471 1479 ft 9 kts 173°
2026-05-07 14:44 48.35266 11.79486 1484 ft 15 kts 173°
2026-05-07 14:44 48.35157 11.79504 1481 ft 16 kts 174°
2026-05-07 14:44 48.35044 11.79524 1480 ft 17 kts 173°
2026-05-07 14:45 48.34925 11.79546 1488 ft 17 kts 173°
2026-05-07 14:45 48.34834 11.79562 1485 ft 9 kts 169°
2026-05-07 14:45 48.34798 11.79629 1480 ft 9 kts 97°
2026-05-07 14:45 48.34803 11.79724 1487 ft 10 kts 83°
2026-05-07 14:46 48.34812 11.79831 1482 ft 11 kts 83°
2026-05-07 14:46 48.34821 11.79949 1485 ft 12 kts 83°
2026-05-07 14:46 48.34831 11.80077 1484 ft 13 kts 83°
2026-05-07 14:46 48.34842 11.80213 1479 ft 11 kts 83°
2026-05-07 14:47 48.34833 11.80326 1481 ft 11 kts 115°
2026-05-07 14:47 48.34770 11.80389 1476 ft 11 kts 168°
2026-05-07 14:47 48.34687 11.80405 1479 ft 12 kts 172°
2026-05-07 14:47 48.34598 11.80421 1483 ft 13 kts 173°
2026-05-07 14:48 48.34515 11.80436 1484 ft 6 kts 173°
2026-05-07 14:48 48.34482 11.80410 1476 ft 5 kts 233°
2026-05-07 14:48 48.34474 11.80358 1488 ft 6 kts 262°
2026-05-07 14:48 48.34474 11.80356 1488 ft 0 kts 262°
2026-05-07 14:49 48.34459 11.80180 1488 ft 47 kts 263°
2026-05-07 14:49 48.34423 11.79701 1480 ft 91 kts 263°
2026-05-07 14:49 48.34326 11.78460 1476 ft 147 kts 263°
2026-05-07 14:49 48.34192 11.76741 1741 ft 173 kts 261°
2026-05-07 14:50 48.34027 11.74991 2612 ft 165 kts 266°
2026-05-07 14:50 48.33844 11.73240 3067 ft 177 kts 257°
2026-05-07 14:50 48.33165 11.71581 3230 ft 202 kts 223°
2026-05-07 14:50 48.31801 11.70773 3461 ft 222 kts 186°
2026-05-07 14:51 48.30230 11.70714 3975 ft 228 kts 182°
2026-05-07 14:51 48.28648 11.71047 4547 ft 234 kts 161°
2026-05-07 14:51 48.27169 11.72243 4911 ft 252 kts 148°
2026-05-07 14:51 48.25672 11.73799 5226 ft 270 kts 146°
2026-05-07 14:52 48.24105 11.75446 5803 ft 279 kts 147°
2026-05-07 14:52 48.22507 11.77105 6531 ft 280 kts 147°
2026-05-07 14:52 48.20915 11.78786 7233 ft 282 kts 143°
2026-05-07 14:52 48.19556 11.80952 7848 ft 290 kts 124°
2026-05-07 14:53 48.18843 11.83781 8530 ft 295 kts 96°
2026-05-07 14:53 48.18778 11.86869 9245 ft 298 kts 88°
2026-05-07 14:53 48.18847 11.89997 9958 ft 302 kts 88°
2026-05-07 14:53 48.18929 11.93182 10417 ft 313 kts 88°
2026-05-07 14:54 48.19014 11.96529 10678 ft 331 kts 88°
2026-05-07 14:54 48.19102 12.00072 10941 ft 348 kts 88°
2026-05-07 14:54 48.19193 12.03781 11208 ft 365 kts 88°
2026-05-07 14:54 48.19284 12.07659 11466 ft 380 kts 88°
2026-05-07 14:55 48.19378 12.11695 11775 ft 393 kts 88°